DW5160 Weather Reports


time (UTC)temp
F
wind
direction
speed
knots
gust
knots
rain 1hr
in
rain 24hr
in
rain mn
in
humidity
%
barometer
mb
20260510044544 54 325 0.0 0.0 0.10 0.96 0.09 88 1009.8
20260510043046 54 325 0.0 0.0 0.09 0.94 0.07 88 1009.1
20260510041543 54 331 0.0 6.1 0.09 0.93 0.06 88 1009.7
20260510040039 54 295 0.0 0.0 0.05 0.87 0.00 87 1009.2
20260510034538 54 295 0.0 0.0 0.05 0.88 0.86 87 1008.7
20260510033051 54 295 0.0 0.0 0.04 0.87 0.85 87 1008.0
20260510031542 54 295 0.0 0.0 0.03 0.86 0.84 87 1008.0
20260510030038 54 295 0.0 0.0 0.03 0.84 0.82 86 1008.6
20260510024536 54 295 0.0 0.0 0.09 0.86 0.81 86 1008.6
20260510023036 54 295 0.0 0.0 0.15 0.86 0.81 86 1008.5
20260510021611 54 294 0.0 0.0 0.22 0.86 0.81 85 1008.8
20260510020035 55 294 0.0 0.0 0.56 0.84 0.79 84 1008.8
20260510014547 55 294 0.0 0.0 0.50 0.80 0.72 83 1009.1
20260510013035 55 294 0.0 5.2 0.44 0.74 0.66 82 1009.0
20260510011533 57 341 0.9 8.7 0.36 0.66 0.57 78 1008.6
20260510010042 63 341 2.6 20.9 0.00 0.30 0.22 66 1007.5
20260510004531 65 205 0.0 7.0 0.00 0.31 0.22 60 1006.2
20260510003030 65 215 0.0 6.1 0.00 0.31 0.22 60 1006.0
20260510001533 65 205 1.7 6.1 0.00 0.31 0.22 60 1005.9
20260510000030 66 186 3.5 8.7 0.00 0.31 0.22 58 1005.8
20260509234528 66 212 0.0 5.2 0.00 0.31 0.22 58 1005.6
20260509233033 67 177 1.7 12.2 0.00 0.31 0.22 56 1005.3
20260509231528 68 277 3.5 15.6 0.00 0.31 0.22 55 1005.2
20260509230036 69 209 2.6 11.3 0.00 0.31 0.22 54 1005.4
20260509224526 69 218 0.9 8.7 0.00 0.31 0.22 54 1005.5
20260509223026 69 209 1.7 13.9 0.00 0.31 0.22 54 1005.2
20260509221524 69 242 0.9 13.0 0.00 0.31 0.22 54 1005.3
20260509220025 69 197 0.9 11.3 0.00 0.31 0.22 53 1005.4
20260509214522 69 199 4.3 15.6 0.00 0.34 0.22 53 1005.4
20260509213021 69 224 0.0 14.8 0.00 0.34 0.22 55 1005.4
20260509211520 69 267 4.3 11.3 0.00 0.34 0.22 53 1005.5
20260509210018 69 219 0.9 12.2 0.00 0.34 0.22 54 1005.7
20260509204515 70 246 1.7 11.3 0.00 0.35 0.22 55 1005.9
20260509203022 69 227 1.7 10.4 0.00 0.35 0.22 56 1006.2
20260509201515 69 201 2.6 6.1 0.00 0.35 0.22 55 1006.3
20260509200008 67 235 2.6 10.4 0.00 0.35 0.22 60 1006.6
20260509194507 67 273 3.5 9.6 0.00 0.35 0.22 59 1007.0
20260509193014 66 267 2.6 14.8 0.00 0.35 0.22 61 1007.1
20260509191503 66 213 2.6 11.3 0.00 0.35 0.22 62 1007.0
20260509190002 66 271 2.6 10.4 0.00 0.35 0.22 62 1007.4
20260509184610 66 206 4.3 12.2 0.00 0.36 0.22 65 1007.3
20260509183059 64 236 4.3 12.2 0.00 0.36 0.22 70 1007.2
20260509181600 63 246 0.9 14.8 0.00 0.36 0.22 71 1007.5
20260509180100 63 207 0.9 8.7 0.00 0.36 0.22 72 1007.6
20260509174548 62 248 1.7 7.8 0.00 0.36 0.22 75 1007.8
20260509173056 60 239 0.0 6.1 0.00 0.36 0.22 76 1007.8
20260509171542 59 261 0.0 6.1 0.00 0.36 0.22 80 1007.9
20260509170038 58 194 1.7 6.1 0.00 0.36 0.22 81 1007.9
20260509164534 58 209 0.0 0.0 0.00 0.36 0.22 84 1007.9
20260509163035 56 209 0.0 4.3 0.00 0.36 0.22 85 1007.9
20260509161539 57 217 0.0 5.2 0.00 0.36 0.22 84 1007.8
20260509160035 57 227 0.0 6.1 0.00 0.36 0.22 86 1007.8
20260509154529 56 254 1.7 5.2 0.00 0.36 0.22 86 1007.7
20260509153046 56 194 1.7 6.1 0.00 0.36 0.22 87 1007.7
20260509151523 54 209 0.0 3.5 0.04 0.36 0.22 90 1007.8
20260509150021 53 204 0.0 6.1 0.04 0.36 0.22 90 1007.9
20260509144519 53 209 0.0 3.5 0.04 0.36 0.22 90 1007.8
20260509143016 52 206 0.0 4.3 0.04 0.36 0.22 90 1007.8
20260509141514 52 201 0.0 0.0 0.00 0.32 0.18 90 1007.9
20260509140011 52 203 0.0 2.6 0.00 0.32 0.18 90 1007.9
20260509134510 52 202 0.0 3.5 0.00 0.32 0.18 90 1007.9
20260509133009 52 202 0.0 0.0 0.00 0.32 0.18 91 1008.1
20260509131507 51 202 0.0 5.2 0.00 0.32 0.18 91 1008.2
20260509130007 51 216 0.0 2.6 0.00 0.32 0.18 91 1008.0
20260509124505 51 218 0.0 0.0 0.00 0.32 0.18 91 1008.0
20260509123003 50 218 0.0 0.0 0.01 0.32 0.18 91 1008.1
20260509121501 50 218 0.0 0.0 0.01 0.32 0.18 91 1008.3
20260509120101 50 218 0.0 0.0 0.01 0.32 0.18 91 1008.3
20260509120001 50 218 0.0 0.0 0.01 0.32 0.18 91 1008.3
20260509114559 49 218 0.0 0.0 0.01 0.32 0.18 91 1008.2
20260509113058 49 218 0.0 0.0 0.01 0.31 0.17 90 1008.1
20260509111559 49 218 0.0 0.0 0.01 0.31 0.17 90 1008.2
20260509110055 49 218 0.0 0.0 0.03 0.31 0.17 90 1008.2
20260509104559 49 218 0.0 0.0 0.04 0.31 0.17 90 1008.2
20260509103104 49 218 0.0 0.0 0.04 0.30 0.16 90 1008.1
20260509101559 49 218 0.0 0.0 0.05 0.30 0.16 90 1008.2
20260509100054 49 218 0.0 0.0 0.04 0.28 0.14 90 1008.3
20260509094557 49 218 0.0 0.0 0.05 0.27 0.13 90 1008.2
20260509093048 49 218 0.0 0.0 0.05 0.26 0.12 89 1008.6
20260509091553 49 218 0.0 0.0 0.04 0.24 0.10 89 1008.7
20260509090054 49 218 0.0 0.0 0.06 0.24 0.10 89 1008.7
20260509084549 49 218 0.0 0.0 0.05 0.22 0.08 89 1009.0
20260509083047 49 218 0.0 0.0 0.05 0.21 0.07 89 1009.1
20260509081542 49 218 0.0 0.0 0.05 0.20 0.06 89 1009.4
20260509080048 49 218 0.0 0.0 0.03 0.18 0.04 89 1009.4
20260509074555 49 218 0.0 0.0 0.01 0.16 0.02 89 1009.4
20260509073058 48 218 0.0 0.0 0.01 0.16 0.02 89 1009.2
20260509071545 48 218 0.0 0.0 0.00 0.15 0.01 89 1009.1
20260509070041 48 218 0.0 0.0 0.00 0.15 0.01 89 1009.2
20260509064539 48 218 0.0 0.0 0.00 0.15 0.01 89 1009.1
20260509063052 49 218 0.0 0.0 0.00 0.15 0.01 88 1009.2
20260509061537 49 218 0.0 0.0 0.00 0.15 0.01 88 1009.4
20260509060039 49 218 0.0 0.0 0.00 0.15 0.01 88 1009.7
20260509054535 49 218 0.0 0.0 0.00 0.15 0.01 88 1009.9
20260509053048 49 218 0.0 0.0 0.01 0.15 0.01 88 1010.0
20260509051528 49 218 0.0 0.0 0.01 0.15 0.01 88 1010.4
20260509050027 49 218 0.0 0.0 0.01 0.15 0.01 88 1010.4